Location: La Pernelle
(49.6188°N, 1.2999°W)
Time: 02:50:50
(UTC+00:00)

NOSS 3-2 (A) - Pass Details

Date: 17 October 2021
Orbit: 771 x 1437 km, 63.4° (Epoch: 21 November)

Event Time Altitude Azimuth Distance (km) Brightness Sun altitude
Rises 21:30:37 0° 314° (NW) 3,812 7.5 -40.6°
Reaches altitude 10° 21:33:12 10° 320° (NW) 2,950 6.7 -40.9°
Enters shadow 21:37:35 37° 346° (NNW) 1,747 5.0 -41.4°
